Temp
17 17 18 17 17 17 17 17 14 15 16 17 17 16 15 12 12 11 11 11 9 7 7 7 7 7 6 6 5 4 4 3 3 2 1 0 -0 -1 -2 -2 -2 -2 -2 -3
13 17 16 15 16 16 17 17 17 16 16 18 16 13 13 12 12 11 9 8 7 6 6 7 7 6 6 5 5 4 4 3 3 2 0 -0 -1 -1 -2 -2 -2 -3 -3 -3
12 12 11 11 14 16 16 17 16 14 16 17 14 12 11 10 10 8 7 6 6 6 7 7 6 6 6 5 5 3 3 3 3 2 -0 -1 -1 -2 -2 -2 -3 -3 -3 -4
9 8 10 16 17 17 16 16 16 16 16 14 12 11 11 8 6 6 6 6 6 7 7 6 6 6 5 5 4 4 3 3 3 1 -0 -1 -2 -2 -2 -3 -3 -3 -4 -4
9 11 13 15 15 14 13 13 15 14 12 11 10 9 10 6 5 5 5 6 6 7 6 6 5 5 4 4 4 4 4 1 0 -1 -1 -1 -2 -2 -2 -3 -3 -4 -5 -5
8 8 10 14 15 14 14 11 12 11 10 9 8 6 6 6 5 6 6 7 6 6 6 5 5 4 3 3 3 3 1 -0 -1 -1 -2 -1 -2 -4 -3 -3 -3 -4 -5 -5
9 8 10 14 14 13 11 10 9 8 7 6 6 5 5 6 6 6 6 6 6 6 5 4 4 3 2 2 2 1 0 -0 -1 -1 -1 -2 -3 -5 -4 -4 -4 -5 -5 -6
8 8 8 14 13 9 10 9 8 7 6 5 5 6 6 6 6 6 6 6 5 4 4 3 3 2 2 1 1 -0 -1 -1 -2 -2 -3 -3 -4 -4 -4 -4 -5 -5 -6 -7
11 10 13 12 11 9 8 7 6 6 5 5 6 6 6 6 6 5 5 4 4 3 3 2 2 2 1 0 -1 -1 -3 -3 -4 -4 -4 -4 -4 -5 -4 -5 -5 -6 -8 -9
12 13 14 10 8 7 6 5 5 5 6 6 6 5 5 5 5 4 4 3 3 2 2 2 2 1 0 -1 -2 -3 -4 -4 -5 -5 -5 -4 -5 -5 -5 -6 -6 -7 -9 -9
12 13 12 8 6 6 6 5 5 6 6 5 5 5 5 5 4 4 3 2 2 2 2 1 0 -0 -1 -3 -3 -4 -5 -5 -5 -5 -5 -5 -6 -6 -6 -7 -7 -8 -9 -10
10 11 10 8 6 6 5 5 6 5 5 5 5 5 4 3 3 2 2 1 1 1 0 -0 -1 -2 -3 -4 -4 -5 -5 -6 -6 -6 -6 -6 -6 -7 -8 -8 -8 -9 -9 -10
10 8 6 5 5 5 6 5 5 4 5 5 4 3 3 2 2 1 1 0 -0 -0 -1 -2 -3 -4 -4 -5 -5 -5 -6 -7 -8 -8 -7 -7 -8 -8 -8 -9 -9 -9 -9 -10
8 6 5 5 5 5 5 5 5 5 4 3 3 2 1 0 -0 -1 -1 -1 -1 -2 -2 -4 -5 -5 -5 -6 -6 -6 -6 -7 -8 -8 -8 -8 -8 -9 -9 -9 -9 -9 -9 -10
6 6 5 4 5 5 5 5 4 4 3 2 1 0 -1 -1 -2 -2 -2 -2 -3 -3 -4 -4 -5 -5 -5 -7 -6 -7 -7 -7 -8 -8 -8 -9 -9 -9 -9 -9 -9 -9 -10 -10
6 6 6 5 5 5 4 4 3 2 1 0 -1 -1 -2 -2 -2 -2 -2 -3 -3 -4 -5 -5 -5 -5 -5 -6 -7 -7 -7 -7 -8 -9 -9 -9 -9 -9 -9 -9 -10 -10 -10 -10
5 5 5 4 4 3 3 2 1 0 -1 -1 -2 -2 -1 -1 -1 -2 -2 -2 -4 -5 -5 -5 -5 -5 -7 -7 -7 -8 -8 -8 -9 -9 -9 -9 -9 -9 -10 -10 -10 -10 -10 -10
5 4 4 3 3 2 2 1 0 -1 -1 -1 -1 -1 -1 -2 -2 -2 -3 -4 -5 -5 -5 -5 -5 -5 -5 -6 -7 -8 -9 -9 -9 -9 -8 -9 -9 -9 -10 -9 -10 -10 -10 -11
3 3 3 2 2 1 0 -0 -1 -1 -1 -1 -2 -2 -2 -2 -2 -4 -5 -5 -5 -5 -5 -5 -5 -6 -6 -6 -9 -9 -9 -9 -9 -9 -9 -8 -9 -9 -9 -9 -10 -10 -10 -11
2 2 1 1 1 0 0 -0 -1 -1 -1 -2 -2 -2 -2 -2 -4 -5 -6 -6 -6 -5 -5 -5 -5 -6 -6 -6 -8 -9 -9 -9 -9 -9 -9 -8 -8 -9 -9 -10 -10 -10 -10 -11
1 1 1 1 0 -0 -1 -1 -1 -2 -2 -2 -2 -3 -3 -3 -6 -6 -6 -6 -5 -5 -5 -5 -6 -6 -7 -7 -8 -8 -9 -9 -9 -9 -8 -8 -8 -8 -9 -9 -10 -10 -10 -10
1 1 1 0 -0 -1 -1 -2 -2 -2 -2 -2 -3 -3 -4 -5 -6 -6 -6 -6 -6 -5 -5 -6 -6 -7 -7 -8 -8 -8 -8 -9 -9 -9 -9 -9 -9 -9 -9 -10 -10 -10 -10 -11
1 0 -0 -1 -1 -1 -2 -2 -2 -2 -2 -3 -3 -4 -5 -5 -6 -6 -6 -6 -6 -6 -6 -6 -6 -7 -7 -7 -8 -8 -8 -9 -9 -9 -9 -9 -9 -9 -9 -10 -10 -10 -11 -11
-1 -1 -1 -2 -2 -2 -2 -2 -2 -3 -3 -3 -4 -5 -5 -5 -6 -6 -6 -6 -6 -7 -6 -6 -6 -7 -7 -7 -7 -8 -8 -8 -9 -9 -9 -9 -9 -9 -9 -9 -10 -10 -11 -11
-1 -2 -2 -2 -2 -2 -2 -2 -2 -3 -3 -3 -5 -5 -5 -6 -6 -7 -7 -7 -6 -7 -7 -6 -6 -6 -7 -7 -7 -7 -8 -9 -9 -9 -10 -10 -10 -10 -10 -10 -10 -10 -10 -11
-2 -2 -2 -2 -2 -2 -2 -3 -3 -3 -3 -3 -5 -6 -6 -7 -7 -7 -7 -7 -7 -6 -7 -7 -7 -7 -7 -7 -7 -7 -8 -8 -9 -10 -10 -10 -11 -11 -11 -10 -10 -10 -10 -10
-2 -2 -2 -2 -2 -2 -2 -3 -3 -3 -4 -5 -6 -6 -7 -7 -7 -7 -7 -7 -7 -7 -7 -6 -6 -6 -7 -7 -7 -8 -8 -8 -9 -9 -10 -10 -10 -10 -11 -11 -11 -11 -11 -11
Height
1535 1533 1532 1532 1531 1529 1530 1529 1539 1534 1529 1526 1529 1531 1533 1537 1537 1537 1537 1537 1536 1535 1533 1531 1529 1527 1526 1523 1521 1517 1515 1513 1511 1507 1501 1498 1495 1495 1493 1491 1488 1485 1482 1480
1544 1531 1534 1537 1531 1529 1526 1524 1524 1528 1528 1525 1529 1533 1535 1536 1537 1536 1536 1537 1535 1532 1531 1529 1526 1524 1522 1519 1516 1513 1509 1505 1502 1499 1497 1494 1491 1491 1489 1487 1483 1481 1479 1476
1549 1545 1544 1545 1534 1525 1526 1524 1527 1534 1529 1526 1532 1536 1537 1537 1537 1538 1538 1537 1535 1532 1529 1527 1524 1522 1519 1515 1513 1508 1507 1501 1498 1490 1486 1486 1486 1485 1484 1481 1479 1477 1474 1472
1557 1555 1556 1527 1524 1523 1526 1525 1527 1526 1526 1530 1538 1539 1538 1538 1539 1540 1538 1536 1533 1530 1527 1524 1520 1518 1514 1510 1506 1502 1498 1492 1488 1482 1481 1478 1479 1479 1478 1476 1475 1472 1470 1466
1557 1549 1538 1526 1525 1530 1532 1534 1529 1528 1532 1535 1536 1535 1540 1540 1541 1538 1536 1533 1530 1527 1524 1520 1517 1515 1510 1505 1503 1499 1494 1487 1484 1482 1480 1475 1474 1475 1473 1472 1470 1468 1465 1462
1560 1562 1551 1527 1527 1530 1532 1536 1533 1535 1537 1539 1539 1541 1540 1539 1537 1535 1533 1530 1527 1523 1520 1518 1514 1509 1506 1503 1499 1495 1488 1484 1479 1479 1477 1471 1469 1469 1471 1469 1467 1462 1460 1457
1555 1557 1544 1529 1528 1530 1539 1542 1538 1539 1540 1540 1540 1541 1538 1536 1534 1532 1530 1527 1524 1520 1517 1513 1509 1506 1503 1500 1496 1491 1485 1482 1478 1474 1471 1467 1466 1466 1466 1465 1462 1458 1454 1452
1553 1553 1548 1527 1529 1541 1536 1536 1538 1540 1539 1539 1539 1536 1535 1533 1532 1530 1527 1524 1521 1517 1513 1510 1507 1503 1499 1495 1491 1487 1481 1477 1474 1470 1466 1463 1462 1463 1463 1461 1458 1454 1451 1447
1537 1534 1527 1527 1531 1532 1534 1536 1537 1538 1537 1537 1535 1534 1533 1531 1529 1526 1524 1521 1517 1515 1510 1507 1503 1499 1494 1491 1484 1481 1477 1474 1470 1466 1464 1462 1460 1460 1459 1457 1453 1451 1448 1445
1525 1522 1522 1524 1528 1528 1531 1532 1532 1535 1534 1533 1533 1533 1531 1528 1526 1523 1521 1518 1514 1511 1507 1503 1500 1495 1491 1485 1480 1476 1473 1470 1468 1465 1462 1461 1459 1458 1456 1453 1451 1449 1446 1442
1517 1517 1519 1524 1526 1527 1528 1529 1530 1532 1532 1531 1530 1529 1527 1525 1522 1520 1517 1513 1510 1507 1502 1497 1494 1490 1485 1481 1476 1473 1470 1467 1465 1462 1460 1458 1456 1455 1453 1451 1449 1446 1443 1439
1516 1514 1517 1520 1523 1524 1526 1527 1528 1530 1530 1529 1528 1526 1524 1522 1519 1516 1511 1509 1505 1502 1498 1493 1489 1484 1480 1477 1472 1469 1466 1464 1461 1459 1458 1456 1454 1452 1451 1449 1446 1444 1440 1437
1513 1514 1517 1519 1522 1523 1524 1526 1527 1528 1527 1526 1525 1523 1522 1519 1517 1513 1510 1506 1501 1497 1491 1486 1482 1479 1476 1472 1468 1466 1463 1461 1458 1456 1455 1454 1452 1450 1448 1446 1444 1441 1437 1434
1511 1513 1516 1518 1519 1521 1523 1524 1525 1525 1525 1523 1522 1520 1518 1515 1513 1509 1505 1501 1496 1491 1486 1481 1476 1474 1470 1467 1464 1462 1460 1458 1456 1455 1453 1452 1450 1448 1446 1444 1442 1439 1436 1433
1510 1512 1514 1516 1518 1519 1521 1522 1522 1522 1521 1520 1518 1517 1514 1511 1507 1503 1499 1494 1489 1484 1479 1476 1472 1468 1464 1462 1460 1459 1458 1456 1454 1452 1450 1449 1448 1446 1445 1443 1441 1438 1436 1433
1510 1512 1514 1516 1517 1518 1520 1520 1519 1519 1518 1516 1514 1512 1509 1505 1500 1497 1492 1488 1483 1475 1472 1469 1467 1463 1459 1458 1457 1456 1456 1453 1451 1450 1448 1447 1446 1444 1443 1441 1439 1436 1434 1430
1508 1511 1513 1515 1517 1517 1518 1517 1517 1515 1513 1511 1509 1506 1502 1499 1494 1490 1486 1481 1476 1472 1468 1465 1461 1458 1456 1455 1453 1453 1452 1450 1448 1447 1446 1445 1444 1442 1441 1438 1436 1434 1432 1428
1508 1510 1513 1514 1515 1516 1515 1514 1513 1511 1509 1507 1505 1500 1496 1493 1488 1483 1478 1474 1470 1466 1463 1459 1456 1454 1452 1451 1450 1449 1447 1446 1445 1444 1443 1442 1441 1440 1438 1436 1434 1432 1429 1427
1509 1511 1513 1514 1513 1512 1511 1510 1508 1506 1504 1502 1499 1496 1492 1488 1483 1477 1473 1469 1465 1460 1457 1454 1452 1450 1448 1447 1445 1444 1444 1443 1441 1440 1440 1439 1438 1437 1435 1433 1431 1429 1427 1424
1509 1510 1511 1510 1509 1508 1506 1505 1503 1501 1499 1497 1494 1491 1486 1482 1477 1471 1468 1464 1462 1458 1454 1450 1448 1446 1445 1444 1442 1441 1440 1439 1438 1437 1436 1436 1435 1434 1433 1430 1428 1426 1424 1422
1507 1507 1507 1506 1504 1503 1502 1501 1499 1497 1494 1492 1489 1485 1480 1475 1472 1469 1464 1459 1457 1454 1450 1446 1444 1442 1441 1440 1439 1439 1437 1437 1436 1434 1433 1433 1432 1430 1429 1427 1425 1423 1421 1419
1504 1503 1502 1501 1500 1498 1497 1495 1493 1491 1489 1487 1484 1480 1475 1470 1467 1464 1461 1457 1452 1449 1444 1441 1439 1439 1438 1438 1437 1436 1434 1433 1432 1431 1430 1429 1428 1427 1425 1423 1421 1419 1418 1415
1499 1498 1497 1496 1495 1493 1491 1489 1487 1485 1484 1482 1478 1474 1471 1467 1464 1459 1454 1452 1447 1443 1439 1437 1436 1435 1434 1433 1432 1431 1430 1429 1428 1427 1426 1425 1423 1422 1420 1419 1417 1415 1413 1411
1496 1495 1493 1491 1489 1487 1485 1483 1481 1480 1478 1475 1472 1469 1466 1461 1458 1456 1451 1446 1442 1437 1433 1432 1432 1431 1430 1428 1427 1425 1424 1423 1423 1422 1420 1419 1418 1417 1416 1414 1412 1411 1409 1407
1492 1490 1488 1485 1483 1482 1480 1478 1477 1475 1473 1470 1467 1463 1461 1457 1454 1448 1444 1440 1436 1432 1429 1427 1426 1425 1424 1423 1422 1420 1418 1417 1417 1416 1414 1413 1412 1411 1410 1409 1408 1407 1405 1403
1487 1485 1484 1482 1480 1477 1474 1472 1471 1469 1466 1463 1459 1456 1453 1450 1446 1442 1437 1434 1430 1427 1424 1422 1421 1420 1418 1417 1416 1414 1413 1412 1410 1409 1408 1407 1406 1405 1404 1403 1402 1402 1400 1398
1483 1482 1480 1477 1475 1473 1470 1467 1464 1462 1460 1457 1453 1450 1446 1443 1439 1435 1432 1428 1425 1422 1419 1417 1415 1413 1411 1410 1409 1407 1406 1405 1404 1403 1402 1401 1400 1399 1397 1396 1396 1395 1394 1394
Wind_Speed
7 9 8 9 11 11 12 12 9 11 16 11 8 7 13 17 18 19 20 18 15 19 20 17 18 17 19 19 21 19 21 21 20 22 17 15 19 18 19 18 21 21 22 22
3 5 10 13 15 13 13 13 10 11 12 12 7 16 16 17 23 19 15 15 20 18 18 18 18 20 21 22 21 22 20 22 26 18 16 16 16 18 17 19 19 20 20 21
3 9 10 3 3 6 8 7 9 5 10 9 15 17 19 18 16 14 17 19 20 18 19 19 21 23 26 23 24 23 29 26 29 26 16 14 15 15 18 18 19 19 21 21
2 4 2 4 14 11 7 6 9 11 9 15 12 16 24 11 12 17 20 20 18 19 21 21 21 25 26 26 29 28 30 35 27 22 16 13 14 14 16 17 19 21 20 19
1 3 9 9 3 5 5 9 9 7 14 15 18 23 12 12 16 17 17 17 20 22 24 24 26 25 26 29 33 34 33 22 33 18 18 18 12 15 15 17 19 19 19 23
2 2 3 3 7 4 6 8 10 14 11 13 17 7 6 16 16 17 19 21 24 26 24 24 22 27 29 29 32 32 32 26 23 20 23 14 15 11 15 16 17 20 24 29
5 5 6 8 6 1 3 3 10 8 7 12 5 6 14 15 15 18 21 23 26 28 28 27 29 28 27 29 30 32 31 28 25 25 26 26 18 8 13 17 18 23 27 28
4 3 6 1 4 2 6 13 7 8 7 6 7 9 13 14 17 20 23 26 28 29 29 27 26 28 27 27 29 29 32 36 35 31 28 13 12 10 13 17 18 21 26 29
9 5 11 9 5 3 5 7 7 8 5 7 10 11 13 15 19 23 25 27 29 27 29 30 28 26 28 28 25 27 28 22 23 22 19 14 13 11 14 16 19 24 25 23
3 8 12 5 8 10 5 8 8 5 5 6 9 11 15 19 22 24 25 28 25 30 29 27 28 26 24 23 26 26 22 22 21 18 18 11 12 13 14 18 22 23 23 24
9 13 10 6 8 3 4 3 0 2 5 7 10 15 18 22 23 25 26 25 30 28 28 28 30 27 25 25 27 21 21 20 15 16 13 10 12 12 15 19 19 21 21 22
7 4 4 3 5 3 0 2 1 3 7 9 13 16 20 23 24 24 26 28 28 28 29 27 27 28 30 27 22 23 23 15 17 17 16 16 17 15 14 18 19 19 19 22
2 5 7 8 3 2 3 2 2 6 8 12 14 17 19 22 23 26 25 27 28 29 27 27 28 26 25 24 22 22 19 20 15 12 12 13 12 13 17 16 17 18 20 20
3 7 4 6 4 6 4 2 5 8 11 13 16 16 18 19 22 24 26 27 28 27 25 26 27 24 25 20 21 17 17 14 12 12 12 12 13 13 14 15 17 17 18 20
5 6 5 7 6 5 2 4 7 10 13 15 14 15 16 19 24 26 27 27 27 30 28 27 28 27 23 17 14 12 13 15 14 13 11 10 11 13 13 14 15 15 16 15
8 8 8 6 3 1 3 7 9 11 13 14 15 17 20 26 27 30 31 30 32 33 27 24 24 27 17 11 10 9 10 14 15 11 10 11 12 14 13 14 15 15 16 19
12 9 6 2 2 3 6 9 9 12 15 17 18 23 25 27 30 32 32 30 30 26 22 21 23 20 12 12 12 9 14 12 14 13 10 11 13 13 15 15 14 15 16 19
5 6 3 0 3 7 9 11 16 16 18 21 23 24 26 28 31 33 31 30 30 27 23 20 18 17 13 12 12 14 15 12 11 12 11 14 12 16 13 14 15 16 16 18
6 3 1 4 6 10 14 17 17 20 21 22 24 28 29 30 31 30 29 28 28 27 23 20 18 14 12 14 13 11 12 12 13 12 12 12 14 15 14 14 15 17 16 15
3 2 5 10 14 17 18 18 19 22 21 22 26 29 32 32 30 29 27 28 24 21 24 18 20 13 13 12 11 10 11 10 12 11 10 11 12 15 15 16 15 16 16 16
8 11 15 19 20 19 19 20 22 22 20 23 26 29 30 28 27 24 27 26 23 20 23 19 16 12 10 12 15 17 12 11 13 10 11 13 14 15 15 16 15 14 16 16
13 19 21 21 21 22 21 21 21 22 23 22 25 27 27 26 24 26 22 24 25 23 24 17 14 12 10 12 16 17 15 15 14 13 13 13 13 14 17 17 15 14 15 16
20 19 19 20 21 23 24 24 23 21 20 24 24 27 25 26 26 28 30 26 21 28 23 16 14 15 16 17 19 18 16 15 16 17 15 15 16 17 18 20 17 15 15 15
19 20 22 23 24 25 25 23 16 16 21 22 24 26 27 28 28 27 25 26 24 24 17 14 16 17 18 19 20 20 18 15 16 18 20 20 18 17 18 19 20 20 17 15
19 20 20 19 20 23 23 22 18 20 18 23 27 27 24 24 27 29 27 27 23 21 19 16 17 18 19 18 18 18 18 17 18 20 21 20 20 18 18 18 18 19 20 20
18 19 19 20 22 22 23 22 23 21 24 31 30 29 26 26 27 28 26 25 23 21 19 19 19 20 22 23 23 21 19 20 21 22 21 20 20 20 19 18 18 18 19 20
16 18 21 23 25 25 25 23 23 24 27 28 31 28 29 23 22 23 24 24 25 24 23 23 24 24 24 26 27 25 22 22 23 21 20 21 21 20 18 18 19 19 18 17
Wind_Direction
318 313 312 308 297 290 281 272 260 271 273 290 12 331 21 30 4 345 334 335 344 330 321 319 317 313 312 309 313 309 310 307 302 303 286 289 306 309 304 309 310 311 312 312
258 278 346 305 297 288 280 277 282 317 309 335 330 42 14 354 339 335 353 339 333 331 321 318 318 317 312 307 307 304 301 298 295 293 299 307 300 302 304 307 308 311 312 313
265 352 317 315 250 350 322 322 311 287 285 334 28 13 356 352 356 358 342 333 329 319 317 326 324 321 317 312 311 312 311 313 308 287 276 279 294 291 300 303 309 308 309 311
281 317 352 35 325 289 319 332 329 306 324 56 17 357 349 28 8 339 331 323 318 315 319 319 317 315 318 317 310 304 299 305 297 283 267 273 282 289 289 301 306 306 309 304
263 272 299 297 68 33 356 311 324 12 12 360 354 350 341 11 344 332 324 318 316 318 318 317 323 320 330 326 321 319 314 319 314 301 289 288 284 286 294 305 306 309 307 302
139 234 260 332 56 71 303 270 35 4 11 359 351 328 310 331 329 329 323 322 318 317 318 320 328 329 331 328 325 329 334 333 326 312 299 287 267 283 303 309 310 308 312 311
218 257 277 285 18 6 253 13 17 36 11 349 336 281 306 316 320 323 320 321 329 330 330 329 328 328 329 324 324 327 333 330 328 313 292 296 284 298 303 308 308 314 309 311
201 237 261 310 337 131 340 337 31 10 357 318 311 315 317 327 323 322 329 332 331 332 330 330 328 324 323 325 325 321 313 312 314 307 304 321 317 305 303 313 313 304 309 317
185 215 212 102 124 101 77 77 19 333 311 301 310 323 325 318 323 329 332 331 331 330 327 319 319 319 322 322 321 313 320 318 316 320 320 308 291 331 321 313 303 308 318 327
207 250 275 26 86 116 73 351 335 264 294 312 319 318 318 325 328 329 328 326 327 323 317 320 327 330 327 324 318 320 312 316 319 326 325 319 289 300 311 301 307 315 318 321
269 269 278 126 144 143 353 305 220 267 311 318 318 321 323 323 323 323 322 325 324 320 323 325 326 327 324 321 318 312 305 315 319 314 323 311 307 319 307 308 311 315 320 326
261 279 218 154 194 268 66 184 191 316 322 321 320 325 329 328 327 326 326 322 321 322 322 321 321 313 315 318 308 311 314 315 307 299 298 302 310 310 308 309 314 321 328 333
6 96 98 141 227 180 202 195 278 312 316 323 331 329 326 324 323 321 322 321 321 320 318 311 311 312 316 308 301 311 308 315 319 330 311 312 312 310 311 319 323 334 332 333
168 134 109 164 176 171 175 231 308 316 323 330 326 324 322 319 319 319 318 317 315 313 309 314 320 310 309 306 301 302 307 327 317 314 307 307 305 314 320 323 327 337 331 332
160 195 200 167 166 175 201 311 320 322 326 323 322 318 318 316 316 316 317 323 316 312 309 310 312 313 314 288 299 316 318 304 310 304 303 303 315 316 315 320 324 329 329 321
171 157 151 162 167 211 306 319 323 320 318 315 309 312 313 320 321 322 327 322 321 321 320 313 310 315 308 289 289 305 302 284 299 307 303 305 306 312 319 318 319 325 326 315
168 173 154 158 259 307 316 316 307 305 305 309 311 316 320 323 324 326 324 323 325 322 318 311 306 312 291 279 298 294 293 290 293 298 299 295 304 311 308 311 317 322 322 318
151 128 141 167 310 310 302 292 301 308 308 311 313 316 319 322 321 322 324 323 322 320 320 315 310 313 296 294 290 272 280 289 287 288 287 290 299 303 313 315 313 316 317 318
128 117 4 317 307 290 294 305 308 310 309 310 314 318 317 316 316 320 322 317 318 317 326 315 312 299 290 295 287 290 284 290 291 286 281 288 293 304 308 310 308 307 317 320
95 342 294 302 307 311 309 310 309 308 311 310 312 311 312 314 318 324 325 316 316 318 315 310 305 299 297 305 304 303 285 288 302 298 286 287 289 297 300 305 312 311 314 315
317 319 319 318 317 314 311 309 306 307 313 311 311 313 313 316 324 325 319 313 322 314 320 316 300 288 301 304 298 312 306 291 298 292 287 286 286 291 298 302 304 304 305 306
317 313 312 312 311 309 307 306 306 310 310 312 317 320 321 318 320 317 315 312 313 315 318 308 295 285 281 263 278 293 284 280 285 293 282 285 286 288 289 293 295 295 300 303
309 309 308 308 307 306 307 306 303 299 302 318 319 322 319 312 313 316 316 312 308 309 307 289 286 275 273 282 283 288 289 274 276 283 288 284 284 285 288 297 294 290 293 297
311 309 307 305 303 302 305 311 305 299 304 313 313 313 313 310 308 312 313 312 308 311 298 278 271 274 281 286 286 290 285 283 277 277 278 282 276 276 282 290 296 302 297 293
302 305 310 315 311 306 304 302 293 289 294 297 309 315 316 304 303 309 312 315 312 314 303 288 281 278 275 281 289 294 292 282 278 279 280 276 277 278 272 275 281 287 294 300
309 309 309 305 306 306 304 294 282 285 292 310 317 320 317 312 310 310 311 314 314 310 306 299 295 288 281 281 284 291 290 282 280 281 281 279 277 278 277 272 270 271 280 290
309 312 310 303 300 298 295 287 281 282 299 312 314 319 317 325 328 324 317 311 311 314 303 298 296 292 289 285 284 284 291 283 277 280 279 277 282 288 283 274 271 272 271 272